Flag for U.S.A. Weather past 2 weeks in Rochester, New York, U.S.A.

Now
44 °F

Passing clouds.


Feels Like: 40 °F
Forecast: 44 / 62 °F
Wind: 7 mph from East

Location: Greater Rochester International Airport

Current Time: Sep 19, 2014 at 6:08:32 AM

Latest Report: Sep 19, 2014 at 4:54 AM


Visibility: 10 mi

Pressure: 30.32 "Hg

Humidity: 71%

Dew point: 35 °F

Location of RochesterLocation

Historic Weather in Rochester — Graph

°F

Rochester temperature yesterday

Maximum temperature yesterday: 60 °F (at 9:54 AM)
Minimum temperature yesterday: 42 °F (at 11:54 PM)
Average temperature yesterday: 50 °F

Past Weeks' High & Low Weather Summary

 TemperatureHumidityPressure
High91 °F (Sep 5, 2:54 PM)97% (Sep 8, 6:54 AM)30.37 "Hg (Sep 8, 6:54 AM)
Low41 °F (Sep 14, 6:54 AM)38% (Sep 17, 4:54 PM)29.60 "Hg (Sep 11, 5:54 AM)
Average61 °F74%30.10 "Hg
* Reported Sep 4 4:54 AM — Sep 19 4:54 AM, Rochester, Weather by CustomWeather, © 2014

Note: Actual official high and low records may vary slightly from our data, if they occured in-between our weather recording intervals... More about our weather records

Advertising

Rochester weather history for previous 24 hours

 ConditionsComfort  
Time TempWeatherWind HumidityBarometerVisibility
4:54 AM
Sep 19
44 °FPassing clouds.7 mph71%30.32 "Hg10 mi
3:54 AM46 °FPassing clouds.6 mph77%30.31 "Hg10 mi
2:54 AM47 °FOvercast.8 mph83%30.29 "Hg10 mi
1:54 AM46 °FPassing clouds.6 mph96%30.28 "Hg10 mi
12:54 AM42 °FPassing clouds.3 mph92%30.25 "Hg10 mi
11:54 PM
Sep 18
42 °FClear.3 mph92%30.25 "Hg10 mi
10:54 PM43 °FClear.No wind93%30.23 "Hg10 mi
9:54 PM47 °FClear.No wind90%30.22 "Hg10 mi
8:54 PM47 °FClear.No wind93%30.21 "Hg10 mi
7:54 PM49 °FPartly sunny.3 mph90%30.19 "Hg10 mi
6:54 PM53 °FBroken clouds.3 mph74%30.18 "Hg10 mi
5:54 PM53 °FMostly cloudy.5 mph74%30.17 "Hg10 mi
4:54 PM53 °FMostly cloudy.8 mph77%30.16 "Hg10 mi
3:54 PM52 °FLow clouds.10 mph86%30.15 "Hg9 mi
2:54 PM53 °FLow clouds.14 mph83%30.15 "Hg10 mi
1:54 PM53 °FOvercast.12 mph86%30.14 "Hg10 mi
12:54 PM53 °FOvercast.15 mph83%30.13 "Hg10 mi
11:54 AM53 °FLow clouds.16 mph89%30.12 "Hg10 mi
10:54 AM56 °FLow clouds.17 mph90%30.09 "Hg10 mi
9:54 AM60 °FBroken clouds.3 mph80%30.08 "Hg10 mi
8:54 AM52 °FBroken clouds.5 mph89%30.06 "Hg8 mi
7:54 AM49 °FBroken clouds.7 mph93%30.05 "Hg7 mi
6:54 AM47 °FFog.6 mph93%30.03 "Hg5 mi
Weather by CustomWeather, © 2014

See weather overviewHow to use our weather pages